This is the latest recevied weather packets stored in our database for station/object NY3Q. If no packets are shown the sender has not sent any weather packets the latest 10 day(s).
| Time | Temp. | Humidity | Pressure | Rain* | Wind** | Luminosity | Snow |
|---|---|---|---|---|---|---|---|
| 1778071983 | 23.89° C | 71% | 1017.2 hPa | 0 mm | - | 150 W/m² | - |
| 1778071681 | 23.89° C | 71% | 1017 hPa | 0 mm | - | 184 W/m² | - |
| 1778071378 | 23.89° C | 72% | 1017.3 hPa | 0 mm | - | 179 W/m² | - |
| 1778071075 | 23.89° C | 73% | 1017.1 hPa | 0 mm | - | 138 W/m² | - |
| 1778070774 | 23.33° C | 75% | 1016.9 hPa | 0 mm | - | 162 W/m² | - |
| 1778070470 | 22.78° C | 77% | 1017 hPa | 0 mm | - | 150 W/m² | - |
| 1778070167 | 22.78° C | 79% | 1017 hPa | 0 mm | - | 123 W/m² | - |
| 1778069866 | 22.22° C | 83% | 1016.8 hPa | 0 mm | - | 127 W/m² | - |
| 1778069562 | 21.11° C | 86% | 1016.8 hPa | 0 mm | - | 113 W/m² | - |
| 1778069259 | 20.56° C | 88% | 1016.7 hPa | 0 mm | - | 80 W/m² | - |
| 1778068957 | 20.56° C | 90% | 1016.8 hPa | 0 mm | - | 58 W/m² | - |
| 1778068655 | 20° C | 92% | 1016.8 hPa | 0 mm | - | 67 W/m² | - |
| 1778068353 | 19.44° C | 93% | 1016.6 hPa | 0 mm | - | 67 W/m² | - |
| 1778068050 | 18.89° C | 93% | 1016.7 hPa | 0 mm | - | 58 W/m² | - |
| 1778067748 | 18.89° C | 94% | 1016.6 hPa | 0 mm | - | 59 W/m² | - |
| 1778067446 | 18.33° C | 94% | 1016.8 hPa | 0 mm | - | 53 W/m² | - |
| 1778067143 | 17.78° C | 94% | 1016.5 hPa | 0 mm | - | 47 W/m² | - |
| 1778066839 | 17.22° C | 94% | 1016.6 hPa | 0 mm | - | 39 W/m² | - |
| 1778066537 | 16.67° C | 94% | 1016.6 hPa | 0 mm | - | 32 W/m² | - |
| 1778066234 | 16.67° C | 94% | 1016.4 hPa | 0 mm | - | 27 W/m² | - |
| 1778065933 | 16.11° C | 94% | 1016.4 hPa | 0 mm | - | 25 W/m² | - |
| 1778065629 | 16.11° C | 93% | 1016.2 hPa | 0 mm | - | 19 W/m² | - |
| 1778065327 | 16.11° C | 93% | 1016.4 hPa | 0 mm | - | 14 W/m² | - |
| 1778065023 | 16.11° C | 93% | 1016.3 hPa | 0 mm | - | 9 W/m² | - |
| 1778064720 | 16.11° C | 93% | 1016.2 hPa | 0 mm | - | 6 W/m² | - |
* Rain latest hour (hover to see other rain measurements)
** Current wind speed in m/s (hover to see current wind gust speed)